Regional Weather Roundup
Issued by NWS Goodland, KS

Home | Current Version | Previous Version | Graphics & Text | Print | Product List | Glossary On
Versions: 1 2 3 4 5 6 7 8 9 10 11 12 13 14 15 16 17 18 19 20 21 22 23 24 25 26 27 28 29 30 31 32 33 34 35 36 37 38 39 40 41 42 43 44 45 46 47 48 49 50
000
ASUS43 KGLD 041708
RWRGLD

GOODLAND FORECAST AREA HOURLY WEATHER ROUNDUP
NATIONAL WEATHER SERVICE GOODLAND KS
1100 AM MDT MON MAY 04 2015

...OFFICIAL OBSERVATIONS...

CITY           SKY/WX    TMP DP  RH WIND       PRES   REMARKS
GOODLAND KS    CLOUDY    59  46  62 NE13      30.10R
HILL CITY KS   LGT RAIN  61  52  72 NE8       30.07F
IMPERIAL NEB   CLOUDY    57  37  47 NE10      30.13R
MCCOOK NEB     CLOUDY    57  43  59 E15       30.11R
AKRON CO       CLOUDY    52  41  66 E8        30.14S
BURLINGTON CO  PTSUNNY   57  47  69 NE15      30.11R
LIMON CO       CLOUDY    54  47  77 E3        30.14S
$$

...UNOFFICIAL OBSERVATIONS...

CITY           SKY/WX    TMP DP  RH WIND       PRES   REMARKS
COLBY KS       LGT RAIN  57  52  82 NE13      30.10S
GOVE KS          N/A     61  32  33 MISG        N/A
LENORA KS        N/A     59  32  36 MISG        N/A
NORTON KS      CLOUDY    57  43  58 NE12      30.09S
SHARON SPRINGS   N/A     58  49  71 MISG        N/A
KIT CARSON CO    N/A     59  49  70 MISG        N/A
YUMA CO          N/A     52  43  71 N7          N/A
$$


USA.gov is the U.S. government's official web portal to all federal, state and local government web resources and services.